Time,TemperatureF,DewpointF,PressureIn,WindDirection,WindDirectionDegrees,WindSpeedMPH,WindSpeedGustMPH,Humidity,HourlyPrecipIn,Conditions,Clouds,dailyrainin,SoftwareType,DateUTC
2013-04-07 00:00:00,55.0,39.1,29.74,SE,135,0.0,2.5,55,0.00,,,0.00,WUHU21623XXSP,2013-04-07 04:00:00,
2013-04-07 00:02:00,55.0,39.1,29.74,SW,225,0.0,2.5,55,0.00,,,0.00,WUHU21623XXSP,2013-04-07 04:02:00,
2013-04-07 00:07:00,54.7,38.7,29.74,SSE,157,0.0,0.0,55,0.00,,,0.00,WUHU21623XXSP,2013-04-07 04:07:00,
2013-04-07 00:12:00,54.3,38.9,29.74,SSE,157,0.0,0.0,56,0.00,,,0.00,WUHU21623XXSP,2013-04-07 04:12:00,
2013-04-07 00:17:00,54.3,39.3,29.74,SSE,157,0.0,0.0,57,0.00,,,0.00,WUHU21623XXSP,2013-04-07 04:17:00,
2013-04-07 00:22:00,54.1,39.2,29.74,SW,225,0.0,0.0,57,0.00,,,0.00,WUHU21623XXSP,2013-04-07 04:22:00,
2013-04-07 00:27:00,54.0,39.5,29.74,SSE,157,0.0,0.0,58,0.00,,,0.00,WUHU21623XXSP,2013-04-07 04:27:00,
2013-04-07 00:32:00,53.8,39.3,29.74,SSW,202,0.0,5.6,58,0.00,,,0.00,WUHU21623XXSP,2013-04-07 04:32:00,
2013-04-07 00:37:00,53.4,39.0,29.75,SSE,157,0.0,5.6,58,0.00,,,0.00,WUHU21623XXSP,2013-04-07 04:37:00,
2013-04-07 00:42:00,53.4,39.5,29.75,South,180,0.0,0.0,59,0.00,,,0.00,WUHU21623XXSP,2013-04-07 04:42:00,
2013-04-07 00:47:00,53.2,39.3,29.75,SSW,202,2.9,2.9,59,0.00,,,0.00,WUHU21623XXSP,2013-04-07 04:47:00,
2013-04-07 00:52:00,53.2,39.3,29.75,South,180,0.0,2.9,59,0.00,,,0.00,WUHU21623XXSP,2013-04-07 04:52:00,
2013-04-07 00:57:00,53.2,39.7,29.75,SSE,157,0.0,2.9,60,0.00,,,0.00,WUHU21623XXSP,2013-04-07 04:57:00,
2013-04-07 01:02:00,52.9,39.4,29.75,SSW,202,0.0,2.5,60,0.00,,,0.00,WUHU21623XXSP,2013-04-07 05:02:00,
2013-04-07 01:07:00,52.9,39.4,29.75,SSE,157,0.0,0.0,60,0.00,,,0.00,WUHU21623XXSP,2013-04-07 05:07:00,
2013-04-07 01:12:00,52.9,39.4,29.75,SSE,157,0.0,0.0,60,0.00,,,0.00,WUHU21623XXSP,2013-04-07 05:12:00,
2013-04-07 01:17:00,53.1,39.6,29.74,SE,135,0.0,2.0,60,0.00,,,0.00,WUHU21623XXSP,2013-04-07 05:17:00,
2013-04-07 01:22:00,53.1,39.6,29.74,South,180,0.0,2.0,60,0.00,,,0.00,WUHU21623XXSP,2013-04-07 05:22:00,
2013-04-07 01:27:00,52.9,39.8,29.74,SW,225,0.0,1.1,61,0.00,,,0.00,WUHU21623XXSP,2013-04-07 05:27:00,
2013-04-07 01:32:00,52.9,39.8,29.74,SSE,157,0.0,1.1,61,0.00,,,0.00,WUHU21623XXSP,2013-04-07 05:32:00,
2013-04-07 01:37:00,52.9,39.8,29.74,South,180,0.0,0.0,61,0.00,,,0.00,WUHU21623XXSP,2013-04-07 05:37:00,
2013-04-07 01:42:00,52.7,40.0,29.74,SSW,202,0.0,1.3,62,0.00,,,0.00,WUHU21623XXSP,2013-04-07 05:42:00,
2013-04-07 01:47:00,52.5,39.8,29.74,SSW,202,0.0,1.3,62,0.00,,,0.00,WUHU21623XXSP,2013-04-07 05:47:00,
2013-04-07 01:52:00,52.3,39.6,29.73,SE,135,0.0,0.0,62,0.00,,,0.00,WUHU21623XXSP,2013-04-07 05:52:00,
2013-04-07 01:57:00,52.0,39.7,29.74,SE,135,0.0,0.0,63,0.00,,,0.00,WUHU21623XXSP,2013-04-07 05:57:00,
2013-04-07 02:02:00,52.0,39.7,29.73,SSE,157,0.0,0.0,63,0.00,,,0.00,WUHU21623XXSP,2013-04-07 06:02:00,
2013-04-07 02:07:00,51.6,39.8,29.73,SSE,157,0.0,0.0,64,0.00,,,0.00,WUHU21623XXSP,2013-04-07 06:07:00,
2013-04-07 02:13:00,51.6,39.8,29.73,SSW,202,0.0,0.0,64,0.00,,,0.00,WUHU21623XXSP,2013-04-07 06:13:00,
2013-04-07 02:18:00,51.4,40.0,29.73,SE,135,0.0,0.0,65,0.00,,,0.00,WUHU21623XXSP,2013-04-07 06:18:00,
2013-04-07 02:23:00,51.3,40.3,29.72,SSE,157,0.0,1.3,66,0.00,,,0.00,WUHU21623XXSP,2013-04-07 06:23:00,
2013-04-07 02:28:00,51.1,40.1,29.72,SSE,157,0.0,1.3,66,0.00,,,0.00,WUHU21623XXSP,2013-04-07 06:28:00,
2013-04-07 02:33:00,51.1,40.5,29.73,SE,135,0.0,0.9,67,0.00,,,0.00,WUHU21623XXSP,2013-04-07 06:33:00,
2013-04-07 02:38:00,51.1,40.9,29.72,SSE,157,0.0,0.0,68,0.00,,,0.00,WUHU21623XXSP,2013-04-07 06:38:00,
2013-04-07 02:43:00,50.9,40.7,29.72,SSE,157,0.0,0.0,68,0.00,,,0.00,WUHU21623XXSP,2013-04-07 06:43:00,
2013-04-07 02:48:00,50.7,40.9,29.72,SSE,157,0.0,0.0,69,0.00,,,0.00,WUHU21623XXSP,2013-04-07 06:48:00,
2013-04-07 02:53:00,50.7,40.9,29.72,South,180,0.0,2.2,69,0.00,,,0.00,WUHU21623XXSP,2013-04-07 06:53:00,
2013-04-07 02:58:00,50.7,40.9,29.72,SSE,157,0.0,2.2,69,0.00,,,0.00,WUHU21623XXSP,2013-04-07 06:58:00,
2013-04-07 03:03:00,50.5,41.2,29.71,SSE,157,0.0,0.0,70,0.00,,,0.00,WUHU21623XXSP,2013-04-07 07:03:00,
2013-04-07 03:08:00,50.2,40.8,29.71,SSE,157,0.0,0.0,70,0.00,,,0.00,WUHU21623XXSP,2013-04-07 07:08:00,
2013-04-07 03:13:00,49.8,40.8,29.72,SSE,157,0.0,0.0,71,0.00,,,0.00,WUHU21623XXSP,2013-04-07 07:13:00,
2013-04-07 03:18:00,49.6,40.6,29.71,SSE,157,0.0,0.0,71,0.00,,,0.00,WUHU21623XXSP,2013-04-07 07:18:00,
2013-04-07 03:23:00,49.5,40.4,29.71,SE,135,0.0,2.0,71,0.00,,,0.00,WUHU21623XXSP,2013-04-07 07:23:00,
2013-04-07 03:28:00,49.3,40.6,29.71,SE,135,0.0,2.0,72,0.00,,,0.00,WUHU21623XXSP,2013-04-07 07:28:00,
2013-04-07 03:33:00,49.1,40.4,29.71,SE,135,0.0,0.0,72,0.00,,,0.00,WUHU21623XXSP,2013-04-07 07:33:00,
2013-04-07 03:38:00,48.7,40.1,29.71,SE,135,0.0,0.0,72,0.00,,,0.00,WUHU21623XXSP,2013-04-07 07:38:00,
2013-04-07 03:43:00,48.6,40.2,29.71,SE,135,0.0,0.0,73,0.00,,,0.00,WUHU21623XXSP,2013-04-07 07:43:00,
2013-04-07 03:48:00,48.2,39.9,29.71,SE,135,0.0,0.0,73,0.00,,,0.00,WUHU21623XXSP,2013-04-07 07:48:00,
2013-04-07 03:53:00,48.0,39.7,29.71,SE,135,0.0,0.0,73,0.00,,,0.00,WUHU21623XXSP,2013-04-07 07:53:00,
2013-04-07 03:58:00,47.8,40.2,29.71,SE,135,0.0,0.0,75,0.00,,,0.00,WUHU21623XXSP,2013-04-07 07:58:00,
2013-04-07 04:03:00,47.8,40.2,29.71,SE,135,0.0,0.0,75,0.00,,,0.00,WUHU21623XXSP,2013-04-07 08:03:00,
2013-04-07 04:08:00,47.7,40.1,29.71,SE,135,0.0,0.0,75,0.00,,,0.00,WUHU21623XXSP,2013-04-07 08:08:00,
2013-04-07 04:13:00,47.5,40.2,29.71,SSE,157,0.0,0.0,76,0.00,,,0.00,WUHU21623XXSP,2013-04-07 08:13:00,
2013-04-07 04:18:00,47.5,40.6,29.71,SSE,157,0.0,0.0,77,0.00,,,0.00,WUHU21623XXSP,2013-04-07 08:18:00,
2013-04-07 04:23:00,47.5,40.6,29.71,SSE,157,0.0,0.0,77,0.00,,,0.00,WUHU21623XXSP,2013-04-07 08:23:00,
2013-04-07 04:28:00,47.5,40.6,29.71,SSE,157,0.0,0.0,77,0.00,,,0.00,WUHU21623XXSP,2013-04-07 08:28:00,
2013-04-07 04:33:00,47.5,40.9,29.71,South,180,0.0,0.0,78,0.00,,,0.00,WUHU21623XXSP,2013-04-07 08:33:00,
2013-04-07 04:38:00,47.3,40.8,29.71,South,180,0.0,0.0,78,0.00,,,0.00,WUHU21623XXSP,2013-04-07 08:38:00,
2013-04-07 04:43:00,47.3,40.8,29.71,South,180,0.0,0.0,78,0.00,,,0.00,WUHU21623XXSP,2013-04-07 08:43:00,
2013-04-07 04:48:00,47.1,40.6,29.71,South,180,0.0,0.0,78,0.00,,,0.00,WUHU21623XXSP,2013-04-07 08:48:00,
2013-04-07 04:53:00,46.9,40.8,29.71,South,180,0.0,0.0,79,0.00,,,0.00,WUHU21623XXSP,2013-04-07 08:53:00,
2013-04-07 04:58:00,46.9,40.8,29.71,South,180,0.0,0.0,79,0.00,,,0.00,WUHU21623XXSP,2013-04-07 08:58:00,
2013-04-07 05:03:00,46.8,41.0,29.71,SE,135,0.0,0.0,80,0.00,,,0.00,WUHU21623XXSP,2013-04-07 09:03:00,
2013-04-07 05:09:00,46.6,40.8,29.71,SE,135,0.0,0.0,80,0.00,,,0.00,WUHU21623XXSP,2013-04-07 09:09:00,
2013-04-07 05:14:00,46.6,40.8,29.71,SE,135,0.0,0.0,80,0.00,,,0.00,WUHU21623XXSP,2013-04-07 09:14:00,
2013-04-07 05:19:00,46.2,40.5,29.71,SE,135,0.0,0.0,80,0.00,,,0.00,WUHU21623XXSP,2013-04-07 09:19:00,
2013-04-07 05:24:00,46.2,40.8,29.71,SE,135,0.0,0.0,81,0.00,,,0.00,WUHU21623XXSP,2013-04-07 09:24:00,
2013-04-07 05:29:00,46.2,40.8,29.71,SE,135,0.0,0.0,81,0.00,,,0.00,WUHU21623XXSP,2013-04-07 09:29:00,
2013-04-07 05:34:00,46.2,40.8,29.72,SE,135,0.0,0.0,81,0.00,,,0.00,WUHU21623XXSP,2013-04-07 09:34:00,
2013-04-07 05:39:00,46.0,40.6,29.72,SE,135,0.0,0.0,81,0.00,,,0.00,WUHU21623XXSP,2013-04-07 09:39:00,
2013-04-07 05:44:00,46.0,40.6,29.71,SE,135,0.0,0.0,81,0.00,,,0.00,WUHU21623XXSP,2013-04-07 09:44:00,
2013-04-07 05:49:00,45.7,40.5,29.72,SE,135,0.0,0.0,82,0.00,,,0.00,WUHU21623XXSP,2013-04-07 09:49:00,
2013-04-07 05:54:00,45.3,40.2,29.72,SE,135,0.0,0.0,82,0.00,,,0.00,WUHU21623XXSP,2013-04-07 09:54:00,
2013-04-07 05:59:00,45.0,39.8,29.72,SE,135,0.0,0.0,82,0.00,,,0.00,WUHU21623XXSP,2013-04-07 09:59:00,
2013-04-07 06:04:00,44.4,39.3,29.72,SE,135,0.0,0.0,82,0.00,,,0.00,WUHU21623XXSP,2013-04-07 10:04:00,
2013-04-07 06:09:00,44.1,39.2,29.72,SE,135,0.0,0.0,83,0.00,,,0.00,WUHU21623XXSP,2013-04-07 10:09:00,
2013-04-07 06:15:00,43.9,39.3,29.72,SE,135,0.0,0.0,84,0.00,,,0.00,WUHU21623XXSP,2013-04-07 10:15:00,
2013-04-07 06:20:00,43.5,39.0,29.72,SE,135,0.0,0.0,84,0.00,,,0.00,WUHU21623XXSP,2013-04-07 10:20:00,
2013-04-07 06:25:00,43.3,38.8,29.73,SE,135,0.0,0.0,84,0.00,,,0.00,WUHU21623XXSP,2013-04-07 10:25:00,
2013-04-07 06:30:00,43.3,38.8,29.73,SE,135,0.0,0.0,84,0.00,,,0.00,WUHU21623XXSP,2013-04-07 10:30:00,
2013-04-07 06:35:00,43.2,38.6,29.73,SE,135,0.0,0.0,84,0.00,,,0.00,WUHU21623XXSP,2013-04-07 10:35:00,
2013-04-07 06:40:00,43.0,38.4,29.73,SE,135,0.0,0.0,84,0.00,,,0.00,WUHU21623XXSP,2013-04-07 10:40:00,
2013-04-07 06:45:00,43.0,38.4,29.73,SE,135,0.0,0.0,84,0.00,,,0.00,WUHU21623XXSP,2013-04-07 10:45:00,
2013-04-07 06:50:00,43.0,38.4,29.73,SE,135,0.0,0.0,84,0.00,,,0.00,WUHU21623XXSP,2013-04-07 10:50:00,
2013-04-07 06:55:00,43.0,38.4,29.73,SE,135,0.0,0.0,84,0.00,,,0.00,WUHU21623XXSP,2013-04-07 10:55:00,
2013-04-07 07:00:00,43.0,38.4,29.73,SE,135,0.0,0.0,84,0.00,,,0.00,WUHU21623XXSP,2013-04-07 11:00:00,
2013-04-07 07:05:00,43.0,38.4,29.73,SE,135,0.0,0.0,84,0.00,,,0.00,WUHU21623XXSP,2013-04-07 11:05:00,
2013-04-07 07:10:00,42.8,38.3,29.73,SE,135,0.0,0.0,84,0.00,,,0.00,WUHU21623XXSP,2013-04-07 11:10:00,
2013-04-07 07:15:00,42.6,38.4,29.74,SE,135,0.0,0.0,85,0.00,,,0.00,WUHU21623XXSP,2013-04-07 11:15:00,
2013-04-07 07:20:00,42.8,38.6,29.74,SE,135,0.0,0.0,85,0.00,,,0.00,WUHU21623XXSP,2013-04-07 11:20:00,
2013-04-07 07:25:00,43.0,38.8,29.74,SE,135,0.0,0.0,85,0.00,,,0.00,WUHU21623XXSP,2013-04-07 11:25:00,
2013-04-07 07:30:00,43.3,39.4,29.75,SE,135,0.0,0.0,86,0.00,,,0.00,WUHU21623XXSP,2013-04-07 11:30:00,
2013-04-07 07:35:00,43.7,39.8,29.75,SE,135,0.0,0.0,86,0.00,,,0.00,WUHU21623XXSP,2013-04-07 11:35:00,
2013-04-07 07:40:00,44.4,40.5,29.75,SE,135,0.0,0.0,86,0.00,,,0.00,WUHU21623XXSP,2013-04-07 11:40:00,
2013-04-07 07:45:00,44.8,40.9,29.75,SE,135,0.0,0.0,86,0.00,,,0.00,WUHU21623XXSP,2013-04-07 11:45:00,
2013-04-07 07:50:00,45.0,41.0,29.76,SE,135,0.0,0.0,86,0.00,,,0.00,WUHU21623XXSP,2013-04-07 11:50:00,
2013-04-07 07:56:00,45.5,41.9,29.76,SE,135,0.0,0.0,87,0.00,,,0.00,WUHU21623XXSP,2013-04-07 11:56:00,
2013-04-07 08:01:00,46.2,42.6,29.76,SE,135,0.0,0.0,87,0.00,,,0.00,WUHU21623XXSP,2013-04-07 12:01:00,
2013-04-07 08:06:00,46.8,43.1,29.76,SE,135,0.0,0.0,87,0.00,,,0.00,WUHU21623XXSP,2013-04-07 12:06:00,
2013-04-07 08:11:00,47.5,44.1,29.76,SE,135,0.0,0.0,88,0.00,,,0.00,WUHU21623XXSP,2013-04-07 12:11:00,
2013-04-07 08:16:00,48.7,45.3,29.76,SSE,157,0.0,0.0,88,0.00,,,0.00,WUHU21623XXSP,2013-04-07 12:16:00,
2013-04-07 08:21:00,49.1,45.7,29.76,SE,135,0.0,0.0,88,0.00,,,0.00,WUHU21623XXSP,2013-04-07 12:21:00,
2013-04-07 08:26:00,50.4,47.2,29.76,SSE,157,0.0,0.0,89,0.00,,,0.00,WUHU21623XXSP,2013-04-07 12:26:00,
2013-04-07 08:31:00,52.3,49.2,29.76,SE,135,0.0,0.0,89,0.00,,,0.00,WUHU21623XXSP,2013-04-07 12:31:00,
2013-04-07 08:37:00,53.6,49.8,29.76,ENE,67,0.0,0.0,87,0.00,,,0.00,WUHU21623XXSP,2013-04-07 12:37:00,
2013-04-07 08:42:00,55.6,50.1,29.77,SE,135,0.0,3.8,82,0.00,,,0.00,WUHU21623XXSP,2013-04-07 12:42:00,
2013-04-07 08:47:00,55.2,49.4,29.77,SSE,157,0.0,3.8,81,0.00,,,0.00,WUHU21623XXSP,2013-04-07 12:47:00,
2013-04-07 08:52:00,56.8,50.7,29.77,SE,135,0.0,1.8,80,0.00,,,0.00,WUHU21623XXSP,2013-04-07 12:52:00,
2013-04-07 08:57:00,57.9,50.7,29.77,ESE,112,0.0,4.0,77,0.00,,,0.00,WUHU21623XXSP,2013-04-07 12:57:00,
2013-04-07 09:02:00,57.6,49.6,29.77,SE,135,0.0,4.0,75,0.00,,,0.00,WUHU21623XXSP,2013-04-07 13:02:00,
2013-04-07 09:07:00,57.7,50.5,29.77,SE,135,0.0,1.6,77,0.00,,,0.00,WUHU21623XXSP,2013-04-07 13:07:00,
2013-04-07 09:12:00,59.0,51.1,29.77,SE,135,0.0,4.7,75,0.00,,,0.00,WUHU21623XXSP,2013-04-07 13:12:00,
2013-04-07 09:17:00,60.1,51.4,29.77,South,180,0.0,4.7,73,0.00,,,0.00,WUHU21623XXSP,2013-04-07 13:17:00,
2013-04-07 09:22:00,61.0,52.0,29.77,SE,135,0.0,2.7,72,0.00,,,0.00,WUHU21623XXSP,2013-04-07 13:22:00,
2013-04-07 09:27:00,61.9,52.4,29.77,SE,135,0.0,2.0,71,0.00,,,0.00,WUHU21623XXSP,2013-04-07 13:27:00,
2013-04-07 09:32:00,62.8,52.4,29.77,SSE,157,0.0,4.9,69,0.00,,,0.00,WUHU21623XXSP,2013-04-07 13:32:00,
2013-04-07 09:38:00,63.7,52.9,29.78,SW,225,4.0,4.9,68,0.00,,,0.00,WUHU21623XXSP,2013-04-07 13:38:00,
2013-04-07 09:43:00,64.4,53.2,29.77,South,180,0.0,4.0,67,0.00,,,0.00,WUHU21623XXSP,2013-04-07 13:43:00,
2013-04-07 09:48:00,65.8,54.1,29.78,ESE,112,4.7,4.7,66,0.00,,,0.00,WUHU21623XXSP,2013-04-07 13:48:00,
2013-04-07 09:53:00,66.0,53.0,29.78,SE,135,0.0,6.9,63,0.00,,,0.00,WUHU21623XXSP,2013-04-07 13:53:00,
2013-04-07 09:58:00,66.7,53.3,29.78,SSE,157,0.0,6.9,62,0.00,,,0.00,WUHU21623XXSP,2013-04-07 13:58:00,
2013-04-07 10:03:00,67.3,53.4,29.77,ESE,112,0.0,4.5,61,0.00,,,0.00,WUHU21623XXSP,2013-04-07 14:03:00,
2013-04-07 10:08:00,68.2,54.2,29.77,SE,135,0.0,4.5,61,0.00,,,0.00,WUHU21623XXSP,2013-04-07 14:08:00,
2013-04-07 10:13:00,69.1,54.7,29.78,SE,135,3.8,3.8,60,0.00,,,0.00,WUHU21623XXSP,2013-04-07 14:13:00,
2013-04-07 10:18:00,69.3,53.9,29.78,SE,135,4.3,4.3,58,0.00,,,0.00,WUHU21623XXSP,2013-04-07 14:18:00,
2013-04-07 10:23:00,70.2,54.2,29.78,WSW,247,5.6,5.6,57,0.00,,,0.00,WUHU21623XXSP,2013-04-07 14:23:00,
2013-04-07 10:28:00,68.9,53.0,29.78,ESE,112,0.0,5.6,57,0.00,,,0.00,WUHU21623XXSP,2013-04-07 14:28:00,
2013-04-07 10:33:00,68.9,53.0,29.78,SE,135,0.0,2.9,57,0.00,,,0.00,WUHU21623XXSP,2013-04-07 14:33:00,
2013-04-07 10:38:00,70.0,53.5,29.78,ESE,112,0.0,2.0,56,0.00,,,0.00,WUHU21623XXSP,2013-04-07 14:38:00,
2013-04-07 10:43:00,70.3,53.9,29.78,ESE,112,0.0,6.3,56,0.00,,,0.00,WUHU21623XXSP,2013-04-07 14:43:00,
2013-04-07 10:48:00,71.2,54.2,29.78,SSE,157,0.0,6.3,55,0.00,,,0.00,WUHU21623XXSP,2013-04-07 14:48:00,
2013-04-07 10:54:00,72.1,54.0,29.78,SW,225,0.0,5.6,53,0.00,,,0.00,WUHU21623XXSP,2013-04-07 14:54:00,
2013-04-07 10:59:00,73.2,54.4,29.78,SW,225,0.0,4.0,52,0.00,,,0.00,WUHU21623XXSP,2013-04-07 14:59:00,
2013-04-07 11:04:00,74.3,55.0,29.78,South,180,0.0,3.4,51,0.00,,,0.00,WUHU21623XXSP,2013-04-07 15:04:00,
2013-04-07 11:09:00,75.0,55.2,29.78,SSE,157,0.0,3.4,50,0.00,,,0.00,WUHU21623XXSP,2013-04-07 15:09:00,
2013-04-07 11:14:00,75.7,55.3,29.78,SE,135,1.8,1.8,49,0.00,,,0.00,WUHU21623XXSP,2013-04-07 15:14:00,
2013-04-07 11:19:00,74.8,53.8,29.78,SE,135,0.0,2.0,48,0.00,,,0.00,WUHU21623XXSP,2013-04-07 15:19:00,
2013-04-07 11:24:00,73.8,53.3,29.78,South,180,0.0,2.9,49,0.00,,,0.00,WUHU21623XXSP,2013-04-07 15:24:00,
2013-04-07 11:29:00,74.7,54.2,29.78,SW,225,0.0,2.9,49,0.00,,,0.00,WUHU21623XXSP,2013-04-07 15:29:00,
2013-04-07 11:34:00,75.4,54.3,29.78,SW,225,0.0,3.4,48,0.00,,,0.00,WUHU21623XXSP,2013-04-07 15:34:00,
2013-04-07 11:39:00,76.1,54.4,29.77,SW,225,5.4,7.8,47,0.00,,,0.00,WUHU21623XXSP,2013-04-07 15:39:00,
2013-04-07 11:44:00,77.0,54.6,29.77,SE,135,0.0,7.8,46,0.00,,,0.00,WUHU21623XXSP,2013-04-07 15:44:00,
2013-04-07 11:49:00,77.9,54.8,29.77,SE,135,0.0,1.1,45,0.00,,,0.00,WUHU21623XXSP,2013-04-07 15:49:00,
2013-04-07 11:54:00,78.4,54.6,29.77,SSW,202,0.0,8.1,44,0.00,,,0.00,WUHU21623XXSP,2013-04-07 15:54:00,
2013-04-07 11:59:00,78.1,54.3,29.77,South,180,0.0,8.1,44,0.00,,,0.00,WUHU21623XXSP,2013-04-07 15:59:00,
2013-04-07 12:04:00,78.1,54.9,29.77,SE,135,0.0,8.1,45,0.00,,,0.00,WUHU21623XXSP,2013-04-07 16:04:00,
2013-04-07 12:09:00,78.6,55.4,29.76,SW,225,0.0,5.8,45,0.00,,,0.00,WUHU21623XXSP,2013-04-07 16:09:00,
2013-04-07 12:14:00,80.4,57.0,29.76,SSE,157,0.0,5.8,45,0.00,,,0.00,WUHU21623XXSP,2013-04-07 16:14:00,
2013-04-07 12:20:00,81.7,57.6,29.76,NW,315,0.0,3.1,44,0.00,,,0.00,WUHU21623XXSP,2013-04-07 16:20:00,
2013-04-07 12:25:00,81.7,56.3,29.75,SSE,157,0.0,4.7,42,0.00,,,0.00,WUHU21623XXSP,2013-04-07 16:25:00,
2013-04-07 12:30:00,81.3,57.2,29.75,SSE,157,0.0,4.7,44,0.00,,,0.00,WUHU21623XXSP,2013-04-07 16:30:00,
2013-04-07 12:35:00,80.2,56.3,29.75,SSE,157,0.0,8.9,44,0.00,,,0.00,WUHU21623XXSP,2013-04-07 16:35:00,
2013-04-07 12:40:00,80.6,56.6,29.75,SSW,202,0.0,8.9,44,0.00,,,0.00,WUHU21623XXSP,2013-04-07 16:40:00,
2013-04-07 12:45:00,81.7,57.6,29.75,SE,135,3.4,4.0,44,0.00,,,0.00,WUHU21623XXSP,2013-04-07 16:45:00,
2013-04-07 12:50:00,84.0,58.5,29.74,SSW,202,0.0,3.4,42,0.00,,,0.00,WUHU21623XXSP,2013-04-07 16:50:00,
2013-04-07 12:55:00,84.7,57.9,29.74,SSW,202,0.0,3.4,40,0.00,,,0.00,WUHU21623XXSP,2013-04-07 16:55:00,
2013-04-07 13:00:00,84.0,57.2,29.74,SW,225,0.0,2.5,40,0.00,,,0.00,WUHU21623XXSP,2013-04-07 17:00:00,
2013-04-07 13:05:00,82.0,56.0,29.73,SW,225,0.0,2.5,41,0.00,,,0.00,WUHU21623XXSP,2013-04-07 17:05:00,
2013-04-07 13:10:00,82.6,57.1,29.73,SE,135,0.0,2.0,42,0.00,,,0.00,WUHU21623XXSP,2013-04-07 17:10:00,
2013-04-07 13:15:00,81.7,55.7,29.73,SSW,202,0.0,3.1,41,0.00,,,0.00,WUHU21623XXSP,2013-04-07 17:15:00,
2013-04-07 13:20:00,82.9,57.5,29.73,NNE,22,0.0,3.1,42,0.00,,,0.00,WUHU21623XXSP,2013-04-07 17:20:00,
2013-04-07 13:25:00,83.5,56.7,29.73,NNW,337,0.0,5.4,40,0.00,,,0.00,WUHU21623XXSP,2013-04-07 17:25:00,
2013-04-07 13:30:00,81.7,55.6,29.72,SE,135,0.0,5.4,41,0.00,,,0.00,WUHU21623XXSP,2013-04-07 17:30:00,
2013-04-07 13:35:00,82.6,56.5,29.72,West,270,0.0,0.0,41,0.00,,,0.00,WUHU21623XXSP,2013-04-07 17:35:00,
2013-04-07 13:40:00,82.2,56.2,29.72,SSW,202,0.0,0.0,41,0.00,,,0.00,WUHU21623XXSP,2013-04-07 17:40:00,
2013-04-07 13:45:00,82.6,57.8,29.72,SSW,202,0.0,0.0,43,0.00,,,0.00,WUHU21623XXSP,2013-04-07 17:45:00,
2013-04-07 13:51:00,84.9,58.0,29.72,SSE,157,0.0,0.0,40,0.00,,,0.00,WUHU21623XXSP,2013-04-07 17:51:00,
2013-04-07 13:56:00,88.3,58.6,29.71,SE,135,0.0,0.0,37,0.00,,,0.00,WUHU21623XXSP,2013-04-07 17:56:00,
2013-04-07 14:01:00,89.4,58.7,29.71,East,90,0.0,5.8,36,0.00,,,0.00,WUHU21623XXSP,2013-04-07 18:01:00,
2013-04-07 14:06:00,88.3,57.8,29.71,SE,135,1.3,5.8,36,0.00,,,0.00,WUHU21623XXSP,2013-04-07 18:06:00,
2013-04-07 14:11:00,89.2,57.8,29.70,SW,225,0.0,5.1,35,0.00,,,0.00,WUHU21623XXSP,2013-04-07 18:11:00,
2013-04-07 14:16:00,89.2,57.8,29.70,SSW,202,0.0,2.5,35,0.00,,,0.00,WUHU21623XXSP,2013-04-07 18:16:00,
2013-04-07 14:21:00,88.9,56.7,29.70,WSW,247,0.0,9.6,34,0.00,,,0.00,WUHU21623XXSP,2013-04-07 18:21:00,
2013-04-07 14:26:00,87.1,56.0,29.70,SW,225,0.0,9.6,35,0.00,,,0.00,WUHU21623XXSP,2013-04-07 18:26:00,
2013-04-07 14:31:00,86.5,56.3,29.69,SE,135,0.0,5.1,36,0.00,,,0.00,WUHU21623XXSP,2013-04-07 18:31:00,
2013-04-07 14:36:00,83.8,54.7,29.69,SE,135,0.0,6.3,37,0.00,,,0.00,WUHU21623XXSP,2013-04-07 18:36:00,
2013-04-07 14:41:00,81.5,53.4,29.69,SW,225,0.0,6.3,38,0.00,,,0.00,WUHU21623XXSP,2013-04-07 18:41:00,
2013-04-07 14:47:00,80.4,53.2,29.68,South,180,0.0,3.4,39,0.00,,,0.00,WUHU21623XXSP,2013-04-07 18:47:00,
2013-04-07 14:52:00,79.5,53.2,29.68,South,180,0.0,5.1,40,0.00,,,0.00,WUHU21623XXSP,2013-04-07 18:52:00,
2013-04-07 14:57:00,79.0,52.7,29.68,South,180,0.0,5.1,40,0.00,,,0.00,WUHU21623XXSP,2013-04-07 18:57:00,
2013-04-07 15:02:00,78.6,53.0,29.68,WSW,247,0.0,0.0,41,0.00,,,0.00,WUHU21623XXSP,2013-04-07 19:02:00,
2013-04-07 15:07:00,81.3,54.0,29.68,WSW,247,0.0,0.0,39,0.00,,,0.00,WUHU21623XXSP,2013-04-07 19:07:00,
2013-04-07 15:12:00,81.3,54.0,29.68,WSW,247,0.0,4.0,39,0.00,,,0.00,WUHU21623XXSP,2013-04-07 19:12:00,
2013-04-07 15:17:00,84.4,54.4,29.67,WSW,247,4.0,9.4,36,0.00,,,0.00,WUHU21623XXSP,2013-04-07 19:17:00,
2013-04-07 15:22:00,87.1,56.0,29.67,WSW,247,0.0,9.4,35,0.00,,,0.00,WUHU21623XXSP,2013-04-07 19:22:00,
2013-04-07 15:27:00,89.2,57.0,29.67,SW,225,0.0,6.3,34,0.00,,,0.00,WUHU21623XXSP,2013-04-07 19:27:00,
2013-04-07 15:32:00,89.6,56.5,29.67,WSW,247,0.0,1.6,33,0.00,,,0.00,WUHU21623XXSP,2013-04-07 19:32:00,
2013-04-07 15:37:00,86.2,55.2,29.67,WSW,247,0.0,0.0,35,0.00,,,0.00,WUHU21623XXSP,2013-04-07 19:37:00,
2013-04-07 15:42:00,86.9,56.6,29.66,South,180,0.0,1.1,36,0.00,,,0.00,WUHU21623XXSP,2013-04-07 19:42:00,
2013-04-07 15:47:00,87.3,56.1,29.66,SE,135,0.0,1.1,35,0.00,,,0.00,WUHU21623XXSP,2013-04-07 19:47:00,
2013-04-07 15:52:00,86.0,55.0,29.66,West,270,0.0,0.9,35,0.00,,,0.00,WUHU21623XXSP,2013-04-07 19:52:00,
2013-04-07 15:57:00,83.7,54.5,29.66,SE,135,0.0,0.9,37,0.00,,,0.00,WUHU21623XXSP,2013-04-07 19:57:00,
2013-04-07 16:02:00,85.1,55.0,29.65,SE,135,0.0,0.0,36,0.00,,,0.00,WUHU21623XXSP,2013-04-07 20:02:00,
2013-04-07 16:07:00,88.3,57.0,29.65,ESE,112,0.0,0.0,35,0.00,,,0.00,WUHU21623XXSP,2013-04-07 20:07:00,
2013-04-07 16:13:00,88.0,55.9,29.65,ESE,112,0.0,5.1,34,0.00,,,0.00,WUHU21623XXSP,2013-04-07 20:13:00,
2013-04-07 16:18:00,85.3,54.4,29.65,SE,135,0.0,7.8,35,0.00,,,0.00,WUHU21623XXSP,2013-04-07 20:18:00,
2013-04-07 16:23:00,82.6,54.3,29.65,SE,135,0.0,7.8,38,0.00,,,0.00,WUHU21623XXSP,2013-04-07 20:23:00,
2013-04-07 16:28:00,80.8,53.5,29.65,South,180,0.0,3.1,39,0.00,,,0.00,WUHU21623XXSP,2013-04-07 20:28:00,
2013-04-07 16:33:00,79.7,53.3,29.65,South,180,0.0,3.1,40,0.00,,,0.00,WUHU21623XXSP,2013-04-07 20:33:00,
2013-04-07 16:38:00,79.5,53.8,29.65,SE,135,0.0,1.3,41,0.00,,,0.00,WUHU21623XXSP,2013-04-07 20:38:00,
2013-04-07 16:43:00,79.5,53.8,29.64,SSW,202,0.0,1.3,41,0.00,,,0.00,WUHU21623XXSP,2013-04-07 20:43:00,
2013-04-07 16:48:00,79.0,53.3,29.64,SSW,202,0.0,0.0,41,0.00,,,0.00,WUHU21623XXSP,2013-04-07 20:48:00,
2013-04-07 16:53:00,78.6,53.0,29.64,SSW,202,0.0,0.0,41,0.00,,,0.00,WUHU21623XXSP,2013-04-07 20:53:00,
2013-04-07 16:58:00,77.9,52.9,29.64,South,180,0.0,1.6,42,0.00,,,0.00,WUHU21623XXSP,2013-04-07 20:58:00,
2013-04-07 17:03:00,78.8,53.7,29.64,SE,135,0.0,1.6,42,0.00,,,0.00,WUHU21623XXSP,2013-04-07 21:03:00,
2013-04-07 17:08:00,79.0,53.3,29.64,South,180,0.0,3.6,41,0.00,,,0.00,WUHU21623XXSP,2013-04-07 21:08:00,
2013-04-07 17:13:00,78.3,53.3,29.64,SSE,157,0.0,3.6,42,0.00,,,0.00,WUHU21623XXSP,2013-04-07 21:13:00,
2013-04-07 17:19:00,78.1,53.1,29.64,SSW,202,0.0,0.0,42,0.00,,,0.00,WUHU21623XXSP,2013-04-07 21:19:00,
2013-04-07 17:24:00,77.5,53.2,29.64,SE,135,0.0,0.0,43,0.00,,,0.00,WUHU21623XXSP,2013-04-07 21:24:00,
2013-04-07 17:29:00,77.0,52.7,29.63,SSW,202,2.5,5.4,43,0.00,,,0.00,WUHU21623XXSP,2013-04-07 21:29:00,
2013-04-07 17:34:00,76.3,52.7,29.63,NE,45,0.0,5.4,44,0.00,,,0.00,WUHU21623XXSP,2013-04-07 21:34:00,
2013-04-07 17:39:00,76.1,52.5,29.63,SE,135,0.0,1.6,44,0.00,,,0.00,WUHU21623XXSP,2013-04-07 21:39:00,
2013-04-07 17:44:00,76.1,52.5,29.63,SE,135,0.0,6.7,44,0.00,,,0.00,WUHU21623XXSP,2013-04-07 21:44:00,
2013-04-07 17:49:00,76.1,52.5,29.64,SSE,157,0.0,6.7,44,0.00,,,0.00,WUHU21623XXSP,2013-04-07 21:49:00,
2013-04-07 17:54:00,75.9,52.4,29.63,ESE,112,0.0,4.9,44,0.00,,,0.00,WUHU21623XXSP,2013-04-07 21:54:00,
2013-04-07 17:59:00,75.7,52.2,29.63,SW,225,0.0,1.3,44,0.00,,,0.00,WUHU21623XXSP,2013-04-07 21:59:00,
2013-04-07 18:04:00,75.4,51.9,29.63,SSE,157,0.0,0.0,44,0.00,,,0.00,WUHU21623XXSP,2013-04-07 22:04:00,
2013-04-07 18:10:00,75.0,52.2,29.63,SSE,157,0.0,2.2,45,0.00,,,0.00,WUHU21623XXSP,2013-04-07 22:10:00,
2013-04-07 18:15:00,74.8,52.0,29.63,SSE,157,0.0,2.2,45,0.00,,,0.00,WUHU21623XXSP,2013-04-07 22:15:00,
2013-04-07 18:20:00,74.8,51.4,29.64,SSE,157,0.0,0.0,44,0.00,,,0.00,WUHU21623XXSP,2013-04-07 22:20:00,
2013-04-07 18:25:00,74.5,51.0,29.63,SSE,157,0.0,0.0,44,0.00,,,0.00,WUHU21623XXSP,2013-04-07 22:25:00,
2013-04-07 18:30:00,74.1,51.3,29.64,SSE,157,0.0,0.0,45,0.00,,,0.00,WUHU21623XXSP,2013-04-07 22:30:00,
2013-04-07 18:35:00,74.1,51.3,29.64,SSE,157,0.0,0.0,45,0.00,,,0.00,WUHU21623XXSP,2013-04-07 22:35:00,
2013-04-07 18:40:00,73.9,51.1,29.64,SSE,157,0.0,0.0,45,0.00,,,0.00,WUHU21623XXSP,2013-04-07 22:40:00,
2013-04-07 18:45:00,73.8,51.6,29.64,SSE,157,0.0,0.0,46,0.00,,,0.00,WUHU21623XXSP,2013-04-07 22:45:00,
2013-04-07 18:51:00,73.6,51.4,29.64,SSE,157,0.0,0.0,46,0.00,,,0.00,WUHU21623XXSP,2013-04-07 22:51:00,
2013-04-07 18:56:00,73.2,51.1,29.64,SSE,157,0.0,0.0,46,0.00,,,0.00,WUHU21623XXSP,2013-04-07 22:56:00,
2013-04-07 19:01:00,73.2,51.7,29.64,South,180,0.0,6.3,47,0.00,,,0.00,WUHU21623XXSP,2013-04-07 23:01:00,
2013-04-07 19:06:00,73.0,51.5,29.64,South,180,0.0,6.3,47,0.00,,,0.00,WUHU21623XXSP,2013-04-07 23:06:00,
2013-04-07 19:12:00,72.9,51.3,29.63,SSW,202,0.0,0.0,47,0.00,,,0.00,WUHU21623XXSP,2013-04-07 23:12:00,
2013-04-07 19:17:00,72.5,51.6,29.64,SW,225,0.0,0.0,48,0.00,,,0.00,WUHU21623XXSP,2013-04-07 23:17:00,
2013-04-07 19:22:00,72.1,51.3,29.63,SSW,202,0.0,0.0,48,0.00,,,0.00,WUHU21623XXSP,2013-04-07 23:22:00,
2013-04-07 19:27:00,71.8,51.0,29.64,South,180,0.0,0.0,48,0.00,,,0.00,WUHU21623XXSP,2013-04-07 23:27:00,
2013-04-07 19:32:00,71.4,51.2,29.64,South,180,0.0,0.0,49,0.00,,,0.00,WUHU21623XXSP,2013-04-07 23:32:00,
2013-04-07 19:37:00,70.9,50.7,29.64,South,180,0.0,0.0,49,0.00,,,0.00,WUHU21623XXSP,2013-04-07 23:37:00,
2013-04-07 19:42:00,70.2,50.7,29.64,South,180,0.0,0.0,50,0.00,,,0.00,WUHU21623XXSP,2013-04-07 23:42:00,
2013-04-07 19:47:00,69.6,50.7,29.64,South,180,0.0,0.0,51,0.00,,,0.00,WUHU21623XXSP,2013-04-07 23:47:00,
2013-04-07 19:52:00,68.9,50.5,29.64,South,180,0.0,0.0,52,0.00,,,0.00,WUHU21623XXSP,2013-04-07 23:52:00,
2013-04-07 19:57:00,68.5,50.7,29.64,South,180,0.0,0.0,53,0.00,,,0.00,WUHU21623XXSP,2013-04-07 23:57:00,
2013-04-07 20:02:00,67.8,50.0,29.64,South,180,0.0,0.0,53,0.00,,,0.00,WUHU21623XXSP,2013-04-08 00:02:00,
2013-04-07 20:07:00,67.5,50.2,29.64,South,180,0.0,0.0,54,0.00,,,0.00,WUHU21623XXSP,2013-04-08 00:07:00,
2013-04-07 20:12:00,67.1,49.9,29.64,South,180,0.0,0.0,54,0.00,,,0.00,WUHU21623XXSP,2013-04-08 00:12:00,
2013-04-07 20:17:00,66.7,50.0,29.64,South,180,0.0,0.0,55,0.00,,,0.00,WUHU21623XXSP,2013-04-08 00:17:00,
2013-04-07 20:22:00,66.7,50.5,29.64,South,180,0.0,0.0,56,0.00,,,0.00,WUHU21623XXSP,2013-04-08 00:22:00,
2013-04-07 20:27:00,66.7,50.5,29.64,South,180,0.0,0.0,56,0.00,,,0.00,WUHU21623XXSP,2013-04-08 00:27:00,
2013-04-07 20:32:00,66.7,50.5,29.64,South,180,0.0,0.0,56,0.00,,,0.00,WUHU21623XXSP,2013-04-08 00:32:00,
2013-04-07 20:37:00,66.6,50.8,29.64,South,180,0.0,0.0,57,0.00,,,0.00,WUHU21623XXSP,2013-04-08 00:37:00,
2013-04-07 20:42:00,66.4,50.7,29.65,South,180,0.0,0.0,57,0.00,,,0.00,WUHU21623XXSP,2013-04-08 00:42:00,
2013-04-07 20:47:00,66.4,50.7,29.65,South,180,0.0,0.0,57,0.00,,,0.00,WUHU21623XXSP,2013-04-08 00:47:00,
2013-04-07 20:52:00,66.4,50.7,29.65,South,180,0.0,0.0,57,0.00,,,0.00,WUHU21623XXSP,2013-04-08 00:52:00,
2013-04-07 20:57:00,66.0,50.8,29.65,South,180,0.0,0.0,58,0.00,,,0.00,WUHU21623XXSP,2013-04-08 00:57:00,
2013-04-07 21:02:00,65.8,50.6,29.65,South,180,0.0,0.0,58,0.00,,,0.00,WUHU21623XXSP,2013-04-08 01:02:00,
2013-04-07 21:07:00,65.5,50.3,29.65,South,180,0.0,0.0,58,0.00,,,0.00,WUHU21623XXSP,2013-04-08 01:07:00,
2013-04-07 21:12:00,65.5,50.8,29.65,South,180,0.0,0.0,59,0.00,,,0.00,WUHU21623XXSP,2013-04-08 01:12:00,
2013-04-07 21:17:00,65.5,50.8,29.66,SSE,157,0.0,0.0,59,0.00,,,0.00,WUHU21623XXSP,2013-04-08 01:17:00,
2013-04-07 21:22:00,65.3,51.1,29.66,SSE,157,0.0,0.0,60,0.00,,,0.00,WUHU21623XXSP,2013-04-08 01:22:00,
2013-04-07 21:27:00,65.1,50.9,29.66,SSE,157,0.0,0.0,60,0.00,,,0.00,WUHU21623XXSP,2013-04-08 01:27:00,
2013-04-07 21:32:00,65.1,51.3,29.66,SW,225,0.0,0.0,61,0.00,,,0.00,WUHU21623XXSP,2013-04-08 01:32:00,
2013-04-07 21:38:00,65.3,51.5,29.67,South,180,0.0,2.2,61,0.00,,,0.00,WUHU21623XXSP,2013-04-08 01:38:00,
2013-04-07 21:43:00,65.3,51.5,29.66,SSW,202,0.0,2.2,61,0.00,,,0.00,WUHU21623XXSP,2013-04-08 01:43:00,
2013-04-07 21:48:00,65.1,51.3,29.67,South,180,0.0,0.0,61,0.00,,,0.00,WUHU21623XXSP,2013-04-08 01:48:00,
2013-04-07 21:53:00,64.9,51.6,29.67,South,180,0.0,0.0,62,0.00,,,0.00,WUHU21623XXSP,2013-04-08 01:53:00,
2013-04-07 21:58:00,64.8,51.8,29.67,SSE,157,0.0,4.5,63,0.00,,,0.00,WUHU21623XXSP,2013-04-08 01:58:00,
2013-04-07 22:03:00,64.9,52.0,29.67,East,90,0.0,4.5,63,0.00,,,0.00,WUHU21623XXSP,2013-04-08 02:03:00,
2013-04-07 22:08:00,64.9,52.0,29.67,South,180,0.0,0.4,63,0.00,,,0.00,WUHU21623XXSP,2013-04-08 02:08:00,
2013-04-07 22:13:00,64.8,51.8,29.68,SSE,157,0.0,0.0,63,0.00,,,0.00,WUHU21623XXSP,2013-04-08 02:13:00,
2013-04-07 22:18:00,64.6,52.1,29.67,SSE,157,0.0,2.5,64,0.00,,,0.00,WUHU21623XXSP,2013-04-08 02:18:00,
2013-04-07 22:23:00,64.2,51.7,29.68,SSE,157,0.0,2.5,64,0.00,,,0.00,WUHU21623XXSP,2013-04-08 02:23:00,
2013-04-07 22:28:00,64.2,51.7,29.68,South,180,0.0,1.1,64,0.00,,,0.00,WUHU21623XXSP,2013-04-08 02:28:00,
2013-04-07 22:33:00,64.2,51.7,29.68,SW,225,0.0,1.1,64,0.00,,,0.00,WUHU21623XXSP,2013-04-08 02:33:00,
2013-04-07 22:38:00,64.0,52.0,29.68,South,180,0.0,2.7,65,0.00,,,0.00,WUHU21623XXSP,2013-04-08 02:38:00,
2013-04-07 22:43:00,64.0,51.6,29.68,SSE,157,0.0,4.0,64,0.00,,,0.00,WUHU21623XXSP,2013-04-08 02:43:00,
2013-04-07 22:49:00,63.7,51.2,29.68,WSW,247,0.0,4.0,64,0.00,,,0.00,WUHU21623XXSP,2013-04-08 02:49:00,
2013-04-07 22:54:00,63.7,51.2,29.68,SSE,157,0.0,2.0,64,0.00,,,0.00,WUHU21623XXSP,2013-04-08 02:54:00,
2013-04-07 22:59:00,63.5,51.1,29.68,SE,135,0.0,0.9,64,0.00,,,0.00,WUHU21623XXSP,2013-04-08 02:59:00,
2013-04-07 23:04:00,63.3,50.9,29.68,South,180,0.0,3.1,64,0.00,,,0.00,WUHU21623XXSP,2013-04-08 03:04:00,
2013-04-07 23:09:00,63.1,51.1,29.68,SE,135,0.0,3.1,65,0.00,,,0.00,WUHU21623XXSP,2013-04-08 03:09:00,
2013-04-07 23:14:00,63.1,51.1,29.68,SSE,157,0.0,4.0,65,0.00,,,0.00,WUHU21623XXSP,2013-04-08 03:14:00,
2013-04-07 23:19:00,63.1,51.1,29.68,SSE,157,0.0,4.0,65,0.00,,,0.00,WUHU21623XXSP,2013-04-08 03:19:00,
2013-04-07 23:24:00,63.1,51.5,29.68,South,180,0.0,4.3,66,0.00,,,0.00,WUHU21623XXSP,2013-04-08 03:24:00,
2013-04-07 23:29:00,63.0,51.4,29.68,WSW,247,0.0,4.3,66,0.00,,,0.00,WUHU21623XXSP,2013-04-08 03:29:00,
2013-04-07 23:34:00,62.8,51.2,29.68,SE,135,0.0,2.0,66,0.00,,,0.00,WUHU21623XXSP,2013-04-08 03:34:00,
2013-04-07 23:39:00,62.6,51.0,29.68,SSW,202,0.0,0.0,66,0.00,,,0.00,WUHU21623XXSP,2013-04-08 03:39:00,
2013-04-07 23:45:00,62.4,51.3,29.68,South,180,0.0,0.0,67,0.00,,,0.00,WUHU21623XXSP,2013-04-08 03:45:00,
2013-04-07 23:50:00,62.2,51.1,29.68,South,180,0.0,6.9,67,0.00,,,0.00,WUHU21623XXSP,2013-04-08 03:50:00,
2013-04-07 23:55:00,62.2,51.5,29.68,SSE,157,0.0,6.9,68,0.00,,,0.00,WUHU21623XXSP,2013-04-08 03:55:00,